{"data":{"norad_id":58110,"epoch":"2026-09-20T16:31:08.006304Z","epoch_age_seconds":124103,"freshness":"FRESH","line1":"1 58110U 23161P   26263.68828711  .00001096  00000+0  43581-4 0  9998","line2":"2 58110  53.1619 337.1683 0001185  78.0361 282.0774 15.34396846164317","mean_motion":15.34396846,"eccentricity":0.0001185,"inclination_deg":53.1619,"raan_deg":337.1683,"arg_perigee_deg":78.0361,"mean_anomaly_deg":282.0774,"bstar":4.3581e-5,"rev_number":16431,"period_min":93.847950988293,"perigee_km":461.90197389651,"apogee_km":463.52325525517,"semimajor_km":6840.8496145758,"source":"CELESTRAK","updated_at":"2026-09-21T09:00:33.788736Z"}}